SEC Jamboree #2 - Red 2016

Ann Arbor, MI

SEC Jamboree #2 - Red 2016 vs SEC Jamboree #1 2014

Aggregate Data Points
Difference This Meet That Meet
Overall Athletes -186 386 572
Overall Average -36.60 22:36.78 23:13.39
1st-10th Place -1.57 16:33.31 16:34.88
1st-25th Place -1.00 17:02.15 17:03.15
1st-50th Place -1.77 17:32.31 17:34.08
1st-100th Place +9.85 18:22.78 18:12.93
Common Athletes -- -- 117
Ran Faster 67 92 25
Ran Season Best 2 5 3
Average Time -1:21.40 22:08.05 23:29.45
Median Time -1:15.65 21:49.55 23:05.20
Middle 80% Times -1:13.11 21:57.49 23:10.60
Top 10% Times -1:32.41 16:51.31 18:23.72
Top 25% Times -1:22.28 17:51.17 19:13.45
Top 50% Times -1:19.00 19:09.57 20:28.57
Bottom 50% Times -1:22.42 24:44.02 26:06.44
Bottom 25% Times -1:31.62 27:08.12 28:39.74
Bottom 10% Times -2:16.11 29:12.25 31:28.37
Average Difference -1:21.40 -- --
Median Difference -1:30.97 -- --
Middle 80% Difference -1:15.32 -- --
Top 10% Difference -1:13.09 -- --
Top 50% Difference -1:07.28 -- --
Top 25% Difference -1:05.80 -- --
Top 50% Difference -1:07.28 -- --
Bottom 50% Difference -1:35.68 -- --
Bottom 25% Difference -1:48.84 -- --
Bottom 10% Difference -2:27.41 -- --

Performances of Common Athletes
Athlete Team Difference This Meet That Meet
Anthony Giannobile Ann Arbor Skyline -58.96 16:14.94 17:13.90
Aidan Carichner Saline -1:54.73 16:30.77 18:25.50
Michael Greeley Temperance-Bedford -1:38.17 16:34.33 18:12.50
Matthew Parran Monroe -1:48.28 16:37.92 18:26.20
Aldo Pando-girard Ann Arbor Pioneer -3:42.08 16:38.22 20:20.30
Evan Koerschner Saline -16.81 16:40.29 16:57.10
Justin Michele Ann Arbor Skyline -2:24.26 16:40.54 19:04.80
Josh Cook Saline -2:17.96 16:52.84 19:10.80
Aidan Delfuoco Saline -1:12.15 17:10.15 18:22.30
Derek Liemohn Saline -1:59.63 17:18.07 19:17.70
Alex Zittleman Temperance-Bedford -2:16.05 17:28.75 19:44.80
Aaron Milley Saline -3:07.46 17:28.84 20:36.30
Philip Valtadoros Ann Arbor Pioneer -1:19.25 17:34.45 18:53.70
Brendan Pastor Ann Arbor Pioneer -1:48.82 17:41.38 19:30.20
Grant Prater Monroe -2:09.33 17:49.87 19:59.20
Peter Slotten Ann Arbor Pioneer -1:55.89 18:00.91 19:56.80
Jack Wallace Ann Arbor Pioneer -55.67 18:05.53 19:01.20
Toby Mepham Saline -2:24.32 18:06.68 20:31.00
Georgio Pitts Ann Arbor Pioneer -39.12 18:11.08 18:50.20
Connor Wright Ann Arbor Huron -53.81 18:12.69 19:06.50
Ben Shotwell Ann Arbor Skyline -2:46.65 18:15.15 21:01.80
Trevor Bishop Saline -35.92 18:16.38 18:52.30
Jenkins Zac Monroe +1:22.23 19:56.03 18:33.80
Benjamin Stimac Saline -2:05.77 18:42.43 20:48.20
Brady Huber Temperance-Bedford -3:49.67 18:53.33 22:43.00
Jacalyn Overdier Ann Arbor Pioneer +21.30 19:17.20 18:55.90
David Jordan Temperance-Bedford -2:27.24 18:57.46 21:24.70
Garret Peck Ann Arbor Skyline -1:51.65 18:57.75 20:49.40
Luke Humphrey Saline +11.35 19:17.55 19:06.20
Marcus Martin Ann Arbor Huron -1:47.88 19:25.72 21:13.60
Justin Shim Ann Arbor Huron +36.47 20:10.27 19:33.80
Kim Sungrae Ann Arbor Huron -1:56.93 19:33.97 21:30.90
Dylan Reynolds Ann Arbor Skyline -4:03.90 19:37.60 23:41.50
Regan Barsch Saline -2:42.50 19:40.40 22:22.90
Paul Crowley Saline -18.19 19:42.01 20:00.20
Brian York Ann Arbor Skyline -2:15.43 19:46.97 22:02.40
Justin Bennett Temperance-Bedford -2:03.10 19:48.80 21:51.90
Jacob Sorscher Ann Arbor Huron +13.37 20:03.97 19:50.60
Josiah Rentschler Saline -4:26.72 19:50.98 24:17.70
Matthew Lagerquist Saline -1:12.36 19:51.24 21:03.60
Chris Zou Ann Arbor Huron +28.06 20:25.66 19:57.60
Tyler Kudlak Saline +2.33 20:07.73 20:05.40
John Kraine Temperance-Bedford +27.82 20:34.52 20:06.70
Daniel York Ann Arbor Skyline -3:17.15 20:14.15 23:31.30
Ethan Smith Saline -4:24.55 20:18.05 24:42.60
Yunfei Ma Ann Arbor Skyline -5:01.35 20:22.25 25:23.60
Sean Tichener Ann Arbor Huron -53.59 20:38.41 21:32.00
Elizabeth Kos Ann Arbor Pioneer -1:15.69 20:38.61 21:54.30
Sebastian Hollister Saline -28.91 20:45.69 21:14.60
Dominic Bertoia Saline -17.71 20:48.79 21:06.50
Ben Phelps Saline +50.62 21:41.12 20:50.50
Jaron Stacey Saline -19.39 20:50.81 21:10.20
Juliana Romero Saline -39.60 20:54.40 21:34.00
Gillian Hartley Saline -1:33.54 20:59.16 22:32.70
Ryan Yaklin Saline -1:19.74 21:07.16 22:26.90
Elizabeth Riles Ann Arbor Pioneer -4:04.42 21:10.08 25:14.50
Carrie Duerksen Ann Arbor Pioneer +1:26.80 22:37.80 21:11.00
James Lancaster Saline -1:32.66 21:19.84 22:52.50
Jacky Jaing Ann Arbor Huron -36.58 21:35.22 22:11.80
Lydia Gilbert Ann Arbor Skyline -1:47.55 21:49.55 23:37.10
Cynthia Grammatico Saline -1:30.97 21:56.53 23:27.50
Collin Bell Temperance-Bedford +27.14 22:25.44 21:58.30
Juliana Boyd Saline +2:26.70 24:25.50 21:58.80
Shuqi Chen Ann Arbor Huron +1:54.49 23:55.89 22:01.40
Collin Vanloo Ann Arbor Skyline -1:51.21 22:01.49 23:52.70
Abigail Wilson Saline -1:55.94 22:03.26 23:59.20
Mark Einhaus Ann Arbor Pioneer -3:22.52 22:05.68 25:28.20
Tyler-Scott Bivens Ann Arbor Pioneer -1:38.19 22:07.41 23:45.60
Amber Wiederhold Temperance-Bedford +2:26.50 24:35.20 22:08.70
Katie Ryles Ann Arbor Pioneer -55.90 22:12.00 23:07.90
Taylor Vaughan Saline -2:58.94 22:18.66 25:17.60
Yasmine Lajimi Saline -2:13.31 22:34.59 24:47.90
Nico Kostiw Saline -1:15.53 22:39.87 23:55.40
Autumn Green Monroe +14.06 22:54.16 22:40.10
Jacob Salanta Saline -2:52.10 22:43.00 25:35.10
Chloe Lange Saline -2:28.60 22:43.30 25:11.90
Margy Hunter Saline -1:33.44 22:53.56 24:27.00
Jessa Davis Saline -5:33.56 22:56.14 28:29.70
Gavin Wilkinson Temperance-Bedford +19.06 23:24.26 23:05.20
Cayla Champion Temperance-Bedford -4:32.13 23:05.37 27:37.50
Amanda Fox Saline -10.07 23:08.23 23:18.30
Victoria Miller Ann Arbor Skyline -1:28.97 23:17.03 24:46.00
Rachel Pacernick Ann Arbor Pioneer -1:44.10 23:17.30 25:01.40
Brandon Alsbach Temperance-Bedford +1:03.91 24:22.91 23:19.00
Marina Cayen Saline +1:30.12 25:08.22 23:38.10
Mackenzie Helpman Temperance-Bedford -1:25.92 23:47.28 25:13.20
Marshall Isaacs Saline -54.47 24:01.43 24:55.90
Morgan Jones Saline +6:30.51 30:37.61 24:07.10
Lauren Charney Saline +1:06.79 25:22.19 24:15.40
Olivia Cook Temperance-Bedford -53.39 24:40.31 25:33.70
Suzan Karabakal Ann Arbor Huron -17.87 24:41.93 24:59.80
Clayton Skinner Ann Arbor Huron +16.55 24:58.85 24:42.30
Kelly Adamovicz Saline -2:35.32 24:58.38 27:33.70
Carmen Parkinson Saline -1:13.08 25:01.02 26:14.10
Hunter Vizzini Saline -1:10.86 25:10.54 26:21.40
Celeste Pan Ann Arbor Huron +1:03.82 26:18.62 25:14.80
Sojung Ham Ann Arbor Huron -1.66 25:15.14 25:16.80
Mackenzie Kruszka Temperance-Bedford -3:22.22 25:22.58 28:44.80
Katerina Tang Ann Arbor Skyline -19.66 25:30.04 25:49.70
Madison Bunker Ann Arbor Huron +18.05 26:04.75 25:46.70
Lauren Boettger Saline -1:48.94 26:20.86 28:09.80
Eileen Shiau Ann Arbor Huron +17.91 26:43.31 26:25.40
Yadira Vega Monroe -3:52.40 26:30.70 30:23.10
Alysa Clouse Monroe -2:26.95 26:36.35 29:03.30
Eldon Wilderman Ann Arbor Huron -29.71 26:40.69 27:10.40
Hannah Lee Ann Arbor Huron -2:37.94 26:52.36 29:30.30
Hannah Benedek Saline -2:46.90 27:04.90 29:51.80
William Engelhuber Saline -1:09.30 27:22.70 28:32.00
Austin Dazley Temperance-Bedford -7:39.91 27:27.09 35:07.00
Robert Smith Saline -23.48 27:49.02 28:12.50
Carmen Giger Ann Arbor Huron -11.28 28:24.22 28:35.50
Jillian Sutter Temperance-Bedford -0.71 28:29.99 28:30.70
Karen Ji Ann Arbor Huron -18.54 29:01.86 29:20.40
Katie Jacobsen Saline -3:13.05 29:16.55 32:29.60
Annie Nelson Saline +8.07 30:09.57 30:01.50
Katelyn Tayler Monroe -2:40.72 32:19.48 35:00.20
Jordyn Banek Monroe -7:08.85 32:24.05 39:32.90